| time (UTC) | temp F | wind direction | speed MPH | gust MPH | rain 1hr in | rain 24hr in | rain mn in | humidity % | barometer mb |
| 20260906223854 | 74 | 209 | 3.0 | 6.0 | 0.00 | 1.43 | 1.43 | 94 | 1009.0 |
| 20260906222855 | 74 | 202 | 4.0 | 4.0 | 0.01 | 1.43 | 1.43 | 94 | 1009.2 |
| 20260906222354 | 74 | 199 | 4.0 | 4.0 | 0.02 | 1.43 | 1.43 | 94 | 1009.4 |
| 20260906221353 | 74 | 195 | 4.0 | 4.0 | 0.07 | 1.43 | 1.43 | 94 | 1009.3 |
| 20260906220853 | 74 | 208 | 3.0 | 4.0 | 0.09 | 1.43 | 1.43 | 93 | 1009.1 |
| 20260906215853 | 74 | 127 | 2.0 | 3.0 | 0.24 | 1.43 | 1.43 | 93 | 1008.9 |
| 20260906215353 | 74 | 152 | 2.0 | 3.0 | 0.31 | 1.43 | 1.43 | 93 | 1009.1 |
| 20260906214354 | 74 | 192 | 3.0 | 4.0 | 0.46 | 1.42 | 1.42 | 93 | 1009.2 |
| 20260906213854 | 74 | 233 | 4.0 | 4.0 | 0.60 | 1.42 | 1.42 | 93 | 1009.4 |
| 20260906213353 | 74 | 184 | 3.0 | 4.0 | 0.72 | 1.42 | 1.42 | 93 | 1009.5 |
| 20260906212855 | 74 | 182 | 3.0 | 4.0 | 0.81 | 1.41 | 1.41 | 93 | 1009.7 |
| 20260906212355 | 74 | 204 | 3.0 | 4.0 | 0.86 | 1.40 | 1.40 | 93 | 1009.7 |
| 20260906211850 | 74 | 191 | 3.0 | 5.0 | 0.98 | 1.38 | 1.38 | 92 | 1010.2 |
| 20260906210845 | 74 | 134 | 3.0 | 6.0 | 1.27 | 1.33 | 1.33 | 92 | 1009.8 |
| 20260906210345 | 74 | 115 | 2.0 | 6.0 | 1.23 | 1.25 | 1.25 | 92 | 1010.2 |
| 20260906205844 | 74 | 245 | 1.0 | 5.0 | 1.18 | 1.18 | 1.18 | 91 | 1010.3 |
| 20260906205423 | 74 | 0 | 3.0 | 9.0 | 1.11 | 1.11 | 1.11 | 91 | 1010.1 |
| 20260906204845 | 74 | 316 | 5.0 | 10.0 | 1.07 | 1.07 | 1.07 | 91 | 1009.9 |
| 20260906203844 | 75 | 289 | 5.0 | 11.0 | 0.78 | 0.78 | 0.78 | 90 | 1009.9 |
| 20260906203343 | 75 | 68 | 5.0 | 13.0 | 0.69 | 0.69 | 0.69 | 88 | 1009.3 |
| 20260906202841 | 75 | 355 | 7.0 | 22.0 | 0.60 | 0.60 | 0.60 | 86 | 1008.5 |
| 20260906202343 | 76 | 45 | 10.0 | 22.0 | 0.54 | 0.54 | 0.54 | 85 | 1008.3 |
| 20260906201843 | 78 | 41 | 9.0 | 22.0 | 0.39 | 0.39 | 0.39 | 86 | 1009.3 |
| 20260906201342 | 79 | 44 | 6.0 | 13.0 | 0.19 | 0.19 | 0.19 | 87 | 1009.2 |
| 20260906200339 | 84 | 10 | 7.0 | 13.0 | 0.02 | 0.02 | 0.02 | 80 | 1008.2 |
| 20260906195339 | 86 | 94 | 4.0 | 8.0 | 0.00 | 0.00 | 0.00 | 74 | 1008.1 |
| 20260906194840 | 87 | 4 | 5.0 | 10.0 | 0.00 | 0.00 | 0.00 | 74 | 1008.1 |
| 20260906194339 | 88 | 13 | 5.0 | 10.0 | 0.00 | 0.00 | 0.00 | 71 | 1008.3 |
| 20260906193839 | 89 | 9 | 4.0 | 10.0 | 0.00 | 0.00 | 0.00 | 69 | 1008.2 |
| 20260906192837 | 94 | 31 | 1.0 | 5.0 | 0.00 | 0.00 | 0.00 | 61 | 1008.2 |
| 20260906192337 | 93 | 258 | 2.0 | 5.0 | 0.00 | 0.00 | 0.00 | 61 | 1008.4 |
| 20260906191836 | 93 | 171 | 1.0 | 4.0 | 0.00 | 0.00 | 0.00 | 64 | 1008.5 |
| 20260906190837 | 94 | 281 | 2.0 | 8.0 | 0.00 | 0.00 | 0.00 | 58 | 1008.6 |
| 20260906190334 | 94 | 199 | 2.0 | 8.0 | 0.00 | 0.00 | 0.00 | 61 | 1008.6 |
| 20260906185834 | 93 | 273 | 2.0 | 6.0 | 0.00 | 0.00 | 0.00 | 60 | 1008.7 |
| 20260906185339 | 93 | 320 | 2.0 | 6.0 | 0.00 | 0.00 | 0.00 | 63 | 1008.9 |
| 20260906184835 | 94 | 324 | 2.0 | 6.0 | 0.00 | 0.00 | 0.00 | 61 | 1009.1 |
| 20260906184335 | 94 | 0 | 2.0 | 6.0 | 0.00 | 0.00 | 0.00 | 60 | 1009.0 |
| 20260906183835 | 93 | 291 | 1.0 | 6.0 | 0.00 | 0.00 | 0.00 | 65 | 1009.0 |
| 20260906183330 | 92 | 303 | 2.0 | 7.0 | 0.00 | 0.00 | 0.00 | 63 | 1009.1 |
| 20260906182832 | 93 | 258 | 2.0 | 7.0 | 0.00 | 0.00 | 0.00 | 62 | 1009.2 |
| 20260906182331 | 92 | 276 | 1.0 | 7.0 | 0.00 | 0.00 | 0.00 | 65 | 1009.3 |
| 20260906181831 | 93 | 248 | 1.0 | 4.0 | 0.00 | 0.00 | 0.00 | 61 | 1009.4 |
| 20260906181330 | 94 | 219 | 3.0 | 14.0 | 0.00 | 0.02 | 0.00 | 63 | 1009.5 |
| 20260906180829 | 94 | 228 | 3.0 | 14.0 | 0.00 | 0.05 | 0.00 | 59 | 1009.6 |
| 20260906175828 | 93 | 168 | 1.0 | 8.0 | 0.00 | 0.11 | 0.00 | 61 | 1009.7 |
| 20260906175329 | 93 | 221 | 1.0 | 6.0 | 0.00 | 0.11 | 0.00 | 60 | 1009.7 |
| 20260906174829 | 92 | 236 | 1.0 | 6.0 | 0.00 | 0.11 | 0.00 | 61 | 1009.7 |
| 20260906173829 | 92 | 5 | 2.0 | 8.0 | 0.00 | 0.11 | 0.00 | 64 | 1009.8 |
| 20260906172829 | 92 | 323 | 4.0 | 8.0 | 0.00 | 0.11 | 0.00 | 64 | 1010.0 |
| 20260906172329 | 92 | 130 | 2.0 | 8.0 | 0.00 | 0.11 | 0.00 | 64 | 1010.0 |
| 20260906171828 | 92 | 325 | 1.0 | 4.0 | 0.00 | 0.11 | 0.00 | 66 | 1010.0 |
| 20260906171330 | 92 | 173 | 1.0 | 3.0 | 0.00 | 0.11 | 0.00 | 64 | 1010.1 |
| 20260906170829 | 91 | 191 | 1.0 | 3.0 | 0.00 | 0.11 | 0.00 | 70 | 1010.2 |
| 20260906170330 | 91 | 232 | 1.0 | 4.0 | 0.00 | 0.11 | 0.00 | 67 | 1010.3 |
| 20260906165830 | 91 | 226 | 1.0 | 6.0 | 0.00 | 0.11 | 0.00 | 64 | 1010.3 |
| 20260906165329 | 90 | 188 | 2.0 | 6.0 | 0.00 | 0.11 | 0.00 | 70 | 1010.4 |
| 20260906164830 | 89 | 289 | 3.0 | 6.0 | 0.00 | 0.11 | 0.00 | 70 | 1010.5 |
| 20260906164330 | 90 | 267 | 2.0 | 6.0 | 0.00 | 0.11 | 0.00 | 69 | 1010.5 |
| 20260906163831 | 91 | 305 | 2.0 | 5.0 | 0.00 | 0.11 | 0.00 | 65 | 1010.5 |
| 20260906163330 | 90 | 0 | 2.0 | 6.0 | 0.00 | 0.11 | 0.00 | 67 | 1010.5 |
| 20260906162329 | 91 | 337 | 2.0 | 6.0 | 0.00 | 0.11 | 0.00 | 67 | 1010.5 |
| 20260906161828 | 90 | 25 | 1.0 | 5.0 | 0.00 | 0.11 | 0.00 | 66 | 1010.6 |
| 20260906161329 | 89 | 227 | 2.0 | 7.0 | 0.00 | 0.11 | 0.00 | 70 | 1010.7 |
| 20260906160329 | 87 | 294 | 4.0 | 10.0 | 0.00 | 0.11 | 0.00 | 73 | 1010.8 |
| 20260906155829 | 88 | 315 | 3.0 | 7.0 | 0.00 | 0.11 | 0.00 | 73 | 1010.8 |
| 20260906154329 | 87 | 0 | 3.0 | 8.0 | 0.00 | 0.12 | 0.00 | 74 | 1011.0 |
| 20260906153830 | 88 | 306 | 3.0 | 8.0 | 0.00 | 0.13 | 0.00 | 72 | 1011.0 |
| 20260906153329 | 87 | 338 | 3.0 | 8.0 | 0.00 | 0.13 | 0.00 | 73 | 1011.1 |
| 20260906152830 | 87 | 302 | 3.0 | 8.0 | 0.00 | 0.13 | 0.00 | 73 | 1011.1 |
| 20260906152329 | 86 | 305 | 3.0 | 9.0 | 0.00 | 0.13 | 0.00 | 75 | 1011.1 |
| 20260906151330 | 87 | 303 | 3.0 | 10.0 | 0.00 | 0.13 | 0.00 | 75 | 1011.0 |
| 20260906150829 | 87 | 267 | 2.0 | 7.0 | 0.00 | 0.13 | 0.00 | 75 | 1011.1 |
| 20260906150330 | 87 | 284 | 4.0 | 9.0 | 0.00 | 0.13 | 0.00 | 77 | 1011.0 |
| 20260906145830 | 87 | 303 | 4.0 | 10.0 | 0.00 | 0.13 | 0.00 | 75 | 1011.0 |
| 20260906144828 | 87 | 314 | 2.0 | 8.0 | 0.00 | 0.13 | 0.00 | 76 | 1010.9 |
| 20260906144329 | 87 | 332 | 2.0 | 8.0 | 0.00 | 0.13 | 0.00 | 77 | 1010.9 |
| 20260906143329 | 87 | 325 | 2.0 | 9.0 | 0.00 | 0.13 | 0.00 | 76 | 1010.9 |
| 20260906142832 | 86 | 0 | 2.0 | 7.0 | 0.00 | 0.13 | 0.00 | 79 | 1011.0 |
| 20260906142329 | 85 | 7 | 2.0 | 8.0 | 0.00 | 0.13 | 0.00 | 79 | 1011.0 |
| 20260906141830 | 85 | 276 | 3.0 | 8.0 | 0.00 | 0.13 | 0.00 | 81 | 1011.0 |
| 20260906140830 | 84 | 328 | 4.0 | 8.0 | 0.00 | 0.13 | 0.00 | 81 | 1011.0 |
| 20260906140330 | 84 | 300 | 3.0 | 8.0 | 0.00 | 0.13 | 0.00 | 81 | 1011.1 |
| 20260906135329 | 84 | 330 | 4.0 | 8.0 | 0.00 | 0.13 | 0.00 | 82 | 1011.0 |
| 20260906134830 | 84 | 289 | 3.0 | 8.0 | 0.00 | 0.13 | 0.00 | 82 | 1011.0 |
| 20260906134330 | 84 | 312 | 3.0 | 7.0 | 0.00 | 0.13 | 0.00 | 82 | 1011.1 |
| 20260906133830 | 83 | 311 | 4.0 | 8.0 | 0.00 | 0.13 | 0.00 | 84 | 1011.2 |
| 20260906132830 | 82 | 312 | 4.0 | 10.0 | 0.00 | 0.13 | 0.00 | 85 | 1011.2 |
| 20260906131829 | 82 | 291 | 2.0 | 6.0 | 0.00 | 0.13 | 0.00 | 85 | 1011.3 |
| 20260906131329 | 82 | 312 | 2.0 | 6.0 | 0.00 | 0.13 | 0.00 | 85 | 1011.3 |
| 20260906130829 | 82 | 278 | 2.0 | 6.0 | 0.00 | 0.13 | 0.00 | 86 | 1011.4 |
| 20260906125329 | 80 | 310 | 2.0 | 6.0 | 0.00 | 0.13 | 0.00 | 87 | 1011.5 |
| 20260906124833 | 80 | 0 | 2.0 | 7.0 | 0.00 | 0.13 | 0.00 | 88 | 1011.4 |
| 20260906124328 | 79 | 185 | 2.0 | 7.0 | 0.00 | 0.13 | 0.00 | 88 | 1011.3 |
| 20260906123829 | 79 | 265 | 2.0 | 6.0 | 0.00 | 0.13 | 0.00 | 90 | 1011.3 |
| 20260906123329 | 78 | 0 | 1.0 | 4.0 | 0.00 | 0.13 | 0.00 | 91 | 1011.3 |
| 20260906122829 | 78 | 0 | 1.0 | 3.0 | 0.00 | 0.13 | 0.00 | 92 | 1011.3 |
| 20260906122328 | 78 | 201 | 0.0 | 2.0 | 0.00 | 0.13 | 0.00 | 93 | 1011.4 |
| 20260906121828 | 77 | 0 | 0.0 | 2.0 | 0.00 | 0.13 | 0.00 | 94 | 1011.4 |
| 20260906121328 | 77 | 201 | 0.0 | 2.0 | 0.00 | 0.13 | 0.00 | 94 | 1011.4 |
| 20260906120330 | 76 | 0 | 0.0 | 2.0 | 0.00 | 0.13 | 0.00 | 94 | 1011.4 |
| 20260906115830 | 76 | 0 | 0.0 | 2.0 | 0.00 | 0.13 | 0.00 | 94 | 1011.3 |
| 20260906115330 | 76 | 196 | 0.0 | 2.0 | 0.00 | 0.13 | 0.00 | 94 | 1011.2 |
| 20260906114829 | 76 | 0 | 0.0 | 0.0 | 0.00 | 0.13 | 0.00 | 94 | 1011.2 |
| 20260906113830 | 76 | 0 | 0.0 | 0.0 | 0.00 | 0.13 | 0.00 | 94 | 1011.1 |
| 20260906113330 | 76 | 0 | 0.0 | 0.0 | 0.00 | 0.13 | 0.00 | 94 | 1010.8 |
| 20260906112334 | 76 | 0 | 1.0 | 2.0 | 0.00 | 0.13 | 0.00 | 94 | 1010.7 |
| 20260906111830 | 76 | 199 | 1.0 | 2.0 | 0.00 | 0.13 | 0.00 | 94 | 1010.6 |
| 20260906111330 | 76 | 205 | 0.0 | 2.0 | 0.00 | 0.13 | 0.00 | 94 | 1010.6 |
| 20260906110835 | 76 | 211 | 0.0 | 2.0 | 0.00 | 0.13 | 0.00 | 94 | 1010.6 |
| 20260906110330 | 76 | 0 | 0.0 | 2.0 | 0.00 | 0.13 | 0.00 | 94 | 1010.6 |
| 20260906105830 | 76 | 0 | 0.0 | 0.0 | 0.00 | 0.13 | 0.00 | 94 | 1010.4 |
| 20260906105329 | 76 | 0 | 0.0 | 0.0 | 0.00 | 0.13 | 0.00 | 94 | 1010.4 |
| 20260906104830 | 76 | 0 | 0.0 | 1.0 | 0.00 | 0.13 | 0.00 | 94 | 1010.4 |
| 20260906104329 | 76 | 0 | 0.0 | 1.0 | 0.00 | 0.13 | 0.00 | 94 | 1010.3 |
| 20260906103831 | 76 | 0 | 1.0 | 2.0 | 0.00 | 0.13 | 0.00 | 94 | 1010.3 |
| 20260906102831 | 76 | 0 | 0.0 | 2.0 | 0.00 | 0.13 | 0.00 | 94 | 1010.1 |
| 20260906102330 | 76 | 0 | 0.0 | 2.0 | 0.00 | 0.13 | 0.00 | 94 | 1010.1 |
| 20260906101830 | 76 | 202 | 0.0 | 3.0 | 0.00 | 0.13 | 0.00 | 94 | 1010.2 |
| 20260906101329 | 76 | 194 | 0.0 | 3.0 | 0.00 | 0.13 | 0.00 | 94 | 1010.2 |
| 20260906100331 | 76 | 205 | 0.0 | 2.0 | 0.00 | 0.13 | 0.00 | 94 | 1010.2 |
| 20260906095830 | 76 | 204 | 0.0 | 2.0 | 0.00 | 0.13 | 0.00 | 94 | 1010.2 |
| 20260906095330 | 76 | 0 | 0.0 | 2.0 | 0.00 | 0.13 | 0.00 | 94 | 1010.2 |
| 20260906094829 | 0 | 0 | 0.0 | 0.0 | 0.00 | 0.13 | 0.00 | ||
| 20260906094330 | 76 | 0 | 0.0 | 0.0 | 0.00 | 0.13 | 0.00 | 93 | 1010.2 |
| 20260906093330 | 76 | 0 | 0.0 | 2.0 | 0.00 | 0.13 | 0.00 | 93 | 1010.2 |
| 20260906092830 | 76 | 0 | 0.0 | 2.0 | 0.00 | 0.13 | 0.00 | 93 | 1010.2 |
| 20260906092323 | 76 | 195 | 0.0 | 2.0 | 0.00 | 0.13 | 0.00 | 93 | 1010.1 |
| 20260906091823 | 76 | 0 | 0.0 | 0.0 | 0.00 | 0.13 | 0.00 | 93 | 1010.2 |
| 20260906091323 | 76 | 0 | 0.0 | 0.0 | 0.00 | 0.13 | 0.00 | 93 | 1010.1 |
| 20260906090828 | 76 | 0 | 0.0 | 0.0 | 0.00 | 0.13 | 0.00 | 93 | 1010.1 |
| 20260906085808 | 76 | 0 | 0.0 | 2.0 | 0.00 | 0.13 | 0.00 | 93 | 1010.0 |
| 20260906084808 | 76 | 0 | 0.0 | 2.0 | 0.00 | 0.13 | 0.00 | 93 | 1010.1 |
| 20260906084307 | 76 | 0 | 0.0 | 2.0 | 0.00 | 0.13 | 0.00 | 93 | 1010.0 |
| 20260906083807 | 76 | 0 | 0.0 | 1.0 | 0.00 | 0.13 | 0.00 | 93 | 1010.0 |
| 20260906082308 | 76 | 0 | 0.0 | 2.0 | 0.00 | 0.13 | 0.00 | 93 | 1009.9 |
| 20260906081808 | 76 | 198 | 0.0 | 2.0 | 0.00 | 0.13 | 0.00 | 93 | 1009.9 |
| 20260906080802 | 76 | 0 | 0.0 | 0.0 | 0.00 | 0.13 | 0.00 | 93 | 1009.8 |
| 20260906080303 | 76 | 0 | 0.0 | 0.0 | 0.00 | 0.13 | 0.00 | 93 | 1009.9 |
| 20260906075802 | 76 | 0 | 0.0 | 1.0 | 0.00 | 0.13 | 0.00 | 93 | 1009.8 |
| 20260906075305 | 76 | 0 | 0.0 | 1.0 | 0.00 | 0.13 | 0.00 | 93 | 1009.9 |
| 20260906074805 | 76 | 0 | 0.0 | 1.0 | 0.00 | 0.13 | 0.00 | 93 | 1009.9 |
| 20260906074302 | 76 | 0 | 0.0 | 1.0 | 0.00 | 0.13 | 0.00 | 93 | 1009.8 |
| 20260906072305 | 77 | 0 | 0.0 | 1.0 | 0.00 | 0.13 | 0.00 | 92 | 1009.9 |
| 20260906071802 | 77 | 0 | 0.0 | 1.0 | 0.00 | 0.13 | 0.00 | 92 | 1009.9 |
| 20260906071301 | 77 | 0 | 0.0 | 2.0 | 0.00 | 0.13 | 0.00 | 92 | 1009.9 |
| 20260906070802 | 77 | 0 | 0.0 | 2.0 | 0.00 | 0.13 | 0.00 | 92 | 1009.8 |
| 20260906070302 | 77 | 0 | 0.0 | 1.0 | 0.00 | 0.13 | 0.00 | 92 | 1009.9 |
| 20260906065802 | 77 | 0 | 0.0 | 2.0 | 0.00 | 0.13 | 0.00 | 92 | 1010.0 |
| 20260906065305 | 77 | 0 | 0.0 | 2.0 | 0.00 | 0.13 | 0.00 | 93 | 1010.0 |
| 20260906064802 | 77 | 0 | 0.0 | 1.0 | 0.00 | 0.13 | 0.00 | 93 | 1010.0 |
| 20260906064302 | 77 | 0 | 0.0 | 1.0 | 0.00 | 0.13 | 0.00 | 93 | 1010.0 |
| 20260906063805 | 77 | 0 | 0.0 | 0.0 | 0.00 | 0.13 | 0.00 | 93 | 1010.1 |
| 20260906063302 | 77 | 0 | 0.0 | 2.0 | 0.00 | 0.13 | 0.00 | 92 | 1010.0 |
| 20260906062802 | 77 | 0 | 0.0 | 2.0 | 0.00 | 0.13 | 0.00 | 92 | 1010.1 |
| 20260906062305 | 77 | 204 | 0.0 | 2.0 | 0.00 | 0.13 | 0.00 | 92 | 1010.2 |
| 20260906061802 | 77 | 0 | 0.0 | 0.0 | 0.00 | 0.13 | 0.00 | 92 | 1010.2 |
| 20260906061300 | 77 | 0 | 0.0 | 0.0 | 0.00 | 0.13 | 0.00 | 92 | 1010.2 |
| 20260906060801 | 77 | 0 | 0.0 | 0.0 | 0.00 | 0.13 | 0.00 | 92 | 1010.3 |
| 20260906060303 | 77 | 0 | 0.0 | 0.0 | 0.00 | 0.13 | 0.00 | 92 | 1010.3 |
| 20260906055803 | 78 | 0 | 0.0 | 0.0 | 0.00 | 0.13 | 0.00 | 92 | 1010.3 |
| 20260906055306 | 78 | 0 | 0.0 | 0.0 | 0.00 | 0.13 | 0.00 | 92 | 1010.4 |
| 20260906054802 | 78 | 0 | 0.0 | 1.0 | 0.00 | 0.13 | 0.00 | 92 | 1010.5 |
| 20260906054302 | 78 | 0 | 0.0 | 1.0 | 0.00 | 0.13 | 0.00 | 92 | 1010.5 |
| 20260906053302 | 78 | 0 | 0.0 | 0.0 | 0.00 | 0.13 | 0.00 | 92 | 1010.5 |
| 20260906052805 | 78 | 0 | 0.0 | 1.0 | 0.00 | 0.13 | 0.00 | 91 | 1010.6 |
| 20260906051802 | 78 | 0 | 0.0 | 1.0 | 0.00 | 0.13 | 0.00 | 91 | 1010.6 |
| 20260906051301 | 78 | 0 | 0.0 | 0.0 | 0.00 | 0.13 | 0.00 | 91 | 1010.6 |
| 20260906050800 | 79 | 0 | 0.0 | 0.0 | 0.00 | 0.13 | 0.00 | 91 | 1010.5 |
| 20260906050302 | 79 | 0 | 0.0 | 0.0 | 0.00 | 0.13 | 0.00 | 91 | 1010.4 |
| 20260906045801 | 79 | 0 | 0.0 | 2.0 | 0.00 | 0.13 | 0.00 | 91 | 1010.4 |
| 20260906045300 | 79 | 0 | 1.0 | 2.0 | 0.00 | 0.13 | 0.00 | 91 | 1010.5 |
| 20260906044801 | 79 | 0 | 0.0 | 2.0 | 0.00 | 0.13 | 0.00 | 91 | 1010.5 |
| 20260906044300 | 79 | 0 | 0.0 | 2.0 | 0.00 | 0.13 | 0.00 | 91 | 1010.5 |
| 20260906043800 | 79 | 0 | 0.0 | 1.0 | 0.00 | 0.13 | 0.00 | 90 | 1010.6 |
| 20260906043301 | 79 | 0 | 0.0 | 1.0 | 0.00 | 0.13 | 0.00 | 90 | 1010.6 |
| 20260906042800 | 79 | 0 | 0.0 | 2.0 | 0.00 | 0.13 | 0.00 | 90 | 1010.6 |
| 20260906041800 | 79 | 197 | 1.0 | 2.0 | 0.00 | 0.13 | 0.00 | 91 | 1010.7 |
| 20260906041301 | 79 | 202 | 0.0 | 2.0 | 0.00 | 0.13 | 0.00 | 91 | 1010.8 |
| 20260906040800 | 79 | 0 | 0.0 | 2.0 | 0.00 | 0.13 | 0.00 | 91 | 1010.8 |
| 20260906040301 | 79 | 0 | 0.0 | 0.0 | 0.00 | 0.13 | 0.00 | 91 | 1010.9 |
| 20260906035305 | 79 | 0 | 0.0 | 0.0 | 0.00 | 0.13 | 0.13 | 91 | 1011.0 |
| 20260906034300 | 80 | 0 | 0.0 | 0.0 | 0.00 | 0.13 | 0.13 | 91 | 1011.2 |
| 20260906033800 | 80 | 0 | 0.0 | 0.0 | 0.00 | 0.13 | 0.13 | 91 | 1011.2 |
| 20260906033301 | 80 | 0 | 0.0 | 2.0 | 0.00 | 0.13 | 0.13 | 91 | 1011.2 |
| 20260906032801 | 80 | 0 | 0.0 | 2.0 | 0.00 | 0.13 | 0.13 | 91 | 1011.2 |
| 20260906031800 | 80 | 0 | 0.0 | 2.0 | 0.00 | 0.13 | 0.13 | 91 | 1011.2 |
| 20260906030800 | 80 | 0 | 0.0 | 2.0 | 0.00 | 0.13 | 0.13 | 91 | 1011.4 |
| 20260906030301 | 80 | 195 | 0.0 | 2.0 | 0.00 | 0.13 | 0.13 | 91 | 1011.5 |
| 20260906024801 | 80 | 0 | 0.0 | 1.0 | 0.00 | 0.13 | 0.13 | 91 | 1011.5 |
| 20260906023800 | 80 | 0 | 0.0 | 0.0 | 0.00 | 0.13 | 0.13 | 91 | 1011.1 |
| 20260906023301 | 80 | 0 | 0.0 | 0.0 | 0.00 | 0.13 | 0.13 | 91 | 1011.2 |
| 20260906022801 | 80 | 0 | 0.0 | 0.0 | 0.00 | 0.13 | 0.13 | 90 | 1011.2 |
| 20260906022301 | 80 | 0 | 0.0 | 0.0 | 0.00 | 0.13 | 0.13 | 90 | 1011.1 |
| 20260906021802 | 80 | 0 | 0.0 | 0.0 | 0.00 | 0.13 | 0.13 | 90 | 1011.2 |
| 20260906021301 | 80 | 0 | 0.0 | 0.0 | 0.00 | 0.13 | 0.13 | 90 | 1011.2 |
| 20260906020801 | 80 | 0 | 0.0 | 0.0 | 0.00 | 0.13 | 0.13 | 90 | 1011.2 |
| 20260906020301 | 80 | 0 | 0.0 | 1.0 | 0.00 | 0.13 | 0.13 | 90 | 1011.1 |
| 20260906015802 | 80 | 0 | 0.0 | 1.0 | 0.00 | 0.13 | 0.13 | 90 | 1011.0 |
| 20260906015301 | 80 | 0 | 0.0 | 0.0 | 0.00 | 0.13 | 0.13 | 90 | 1010.9 |
| 20260906014800 | 80 | 0 | 0.0 | 0.0 | 0.00 | 0.13 | 0.13 | 90 | 1010.7 |
| 20260906013801 | 80 | 0 | 0.0 | 1.0 | 0.00 | 0.13 | 0.13 | 90 | 1010.6 |
| 20260906013301 | 80 | 0 | 0.0 | 1.0 | 0.00 | 0.13 | 0.13 | 90 | 1010.6 |
| 20260906012802 | 80 | 171 | 0.0 | 1.0 | 0.00 | 0.13 | 0.13 | 90 | 1010.4 |
| 20260906012306 | 80 | 0 | 0.0 | 1.0 | 0.00 | 0.13 | 0.13 | 90 | 1010.3 |
| 20260906011801 | 81 | 0 | 0.0 | 0.0 | 0.00 | 0.13 | 0.13 | 90 | 1010.4 |
| 20260906011300 | 81 | 0 | 0.0 | 0.0 | 0.00 | 0.13 | 0.13 | 89 | 1010.4 |
| 20260906005802 | 81 | 0 | 0.0 | 1.0 | 0.00 | 0.13 | 0.13 | 89 | 1010.3 |
| 20260906005306 | 81 | 0 | 0.0 | 1.0 | 0.00 | 0.13 | 0.13 | 89 | 1010.3 |
| 20260906004801 | 81 | 0 | 0.0 | 0.0 | 0.00 | 0.13 | 0.13 | 89 | 1010.2 |
| 20260906004302 | 81 | 0 | 0.0 | 0.0 | 0.00 | 0.13 | 0.13 | 89 | 1010.2 |
| 20260906003802 | 81 | 0 | 0.0 | 0.0 | 0.00 | 0.13 | 0.13 | 89 | 1010.1 |
| 20260906003303 | 82 | 0 | 0.0 | 0.0 | 0.00 | 0.13 | 0.13 | 88 | 1010.0 |
| 20260906002802 | 82 | 0 | 0.0 | 0.0 | 0.00 | 0.13 | 0.13 | 88 | 1009.9 |
| 20260906002305 | 82 | 0 | 0.0 | 0.0 | 0.00 | 0.13 | 0.13 | 88 | 1009.9 |
| 20260906001806 | 82 | 0 | 0.0 | 0.0 | 0.00 | 0.13 | 0.13 | 88 | 1009.7 |
| 20260906000303 | 83 | 0 | 0.0 | 0.0 | 0.00 | 0.13 | 0.13 | 87 | 1009.6 |
| 20260905235802 | 83 | 0 | 0.0 | 0.0 | 0.00 | 0.13 | 0.13 | 86 | 1009.5 |
| 20260905235306 | 84 | 0 | 0.0 | 0.0 | 0.00 | 0.13 | 0.13 | 86 | 1009.4 |
| 20260905234802 | 84 | 0 | 0.0 | 0.0 | 0.00 | 0.13 | 0.13 | 85 | 1009.5 |
| 20260905234301 | 84 | 0 | 0.0 | 0.0 | 0.00 | 0.13 | 0.13 | 85 | 1009.5 |
| 20260905233800 | 84 | 0 | 0.0 | 0.0 | 0.00 | 0.13 | 0.13 | 85 | 1009.6 |
| 20260905232801 | 85 | 0 | 0.0 | 1.0 | 0.00 | 0.13 | 0.13 | 84 | 1009.6 |
| 20260905232300 | 86 | 0 | 0.0 | 0.0 | 0.00 | 0.13 | 0.13 | 83 | 1009.5 |
| 20260905231801 | 87 | 0 | 0.0 | 1.0 | 0.00 | 0.13 | 0.13 | 82 | 1009.4 |
| 20260905230801 | 88 | 0 | 0.0 | 2.0 | 0.00 | 0.13 | 0.13 | 80 | 1009.3 |
| 20260905230302 | 88 | 0 | 0.0 | 1.0 | 0.00 | 0.13 | 0.13 | 79 | 1009.5 |
| 20260905225801 | 88 | 0 | 0.0 | 1.0 | 0.00 | 0.13 | 0.13 | 79 | 1009.7 |
| 20260905225301 | 88 | 0 | 0.0 | 2.0 | 0.00 | 0.13 | 0.13 | 79 | 1009.8 |
| 20260905224300 | 88 | 176 | 0.0 | 2.0 | 0.00 | 0.13 | 0.13 | 78 | 1010.1 |